Radiation Dose at Monitoring Post of Fukushima Daini Nuclear Power Station
Date,Time,MP-1(microSv/h),MP-2(microSv/h),MP-3(microSv/h),MP-4(microSv/h),MP-5(microSv/h),MP-6(microSv/h),MP-7(microSv/h),Wind Direction,Wind Velocity(m/s),Rain
2018/03/16,00:00,0.320,0.205,0.330,0.314,0.304,0.165,0.100,west-southwest,5.4,No
2018/03/16,00:10,0.318,0.206,0.330,0.317,0.303,0.166,0.100,west-southwest,4.2,No
2018/03/16,00:20,0.321,0.205,0.331,0.314,0.305,0.166,0.100,west-southwest,4.3,No
2018/03/16,00:30,0.320,0.205,0.329,0.316,0.302,0.166,0.100,west-southwest,3.5,No
2018/03/16,00:40,0.321,0.205,0.332,0.315,0.306,0.166,0.100,southwest,3.8,No
2018/03/16,00:50,0.319,0.205,0.331,0.317,0.303,0.166,0.100,southwest,3.6,No
2018/03/16,01:00,0.323,0.206,0.331,0.316,0.305,0.166,0.100,southwest,4.2,No
2018/03/16,01:10,0.319,0.206,0.331,0.316,0.303,0.166,0.101,southwest,4.0,No
2018/03/16,01:20,0.321,0.205,0.331,0.317,0.304,0.166,0.100,southwest,3.3,No
2018/03/16,01:30,0.320,0.205,0.331,0.314,0.303,0.167,0.100,west-southwest,2.5,No
2018/03/16,01:40,0.320,0.206,0.330,0.317,0.304,0.166,0.101,southwest,3.2,No
2018/03/16,01:50,0.320,0.205,0.332,0.317,0.305,0.166,0.100,southwest,3.5,No
2018/03/16,02:00,0.319,0.206,0.331,0.316,0.304,0.165,0.101,south-southwest,3.0,No
2018/03/16,02:10,0.321,0.206,0.331,0.317,0.304,0.165,0.100,southwest,2.7,No
2018/03/16,02:20,0.319,0.205,0.331,0.314,0.302,0.165,0.100,west-southwest,2.7,No
2018/03/16,02:30,0.320,0.205,0.331,0.319,0.305,0.165,0.100,west-southwest,3.7,No
2018/03/16,02:40,0.319,0.205,0.332,0.316,0.303,0.167,0.100,west-southwest,3.9,No
2018/03/16,02:50,0.320,0.204,0.330,0.316,0.306,0.167,0.101,west-southwest,4.5,No
2018/03/16,03:00,0.321,0.205,0.330,0.316,0.303,0.167,0.100,west-southwest,4.9,No
2018/03/16,03:10,0.320,0.205,0.329,0.314,0.305,0.166,0.100,west-southwest,4.7,No
2018/03/16,03:20,0.322,0.204,0.331,0.318,0.302,0.165,0.100,west-southwest,5.2,No
2018/03/16,03:30,0.319,0.205,0.330,0.315,0.303,0.166,0.100,southwest,4.4,No
2018/03/16,03:40,0.321,0.205,0.331,0.316,0.304,0.166,0.100,west-southwest,3.3,No
2018/03/16,03:50,0.319,0.205,0.329,0.316,0.303,0.166,0.100,west-northwest,1.8,No
2018/03/16,04:00,0.321,0.206,0.331,0.315,0.305,0.166,0.100,west,3.9,No
2018/03/16,04:10,0.317,0.205,0.330,0.315,0.302,0.166,0.100,west,3.2,No
2018/03/16,04:20,0.318,0.206,0.330,0.315,0.304,0.165,0.100,west,3.4,No
2018/03/16,04:30,0.320,0.205,0.332,0.316,0.303,0.168,0.100,west-southwest,3.8,No
2018/03/16,04:40,0.319,0.205,0.330,0.315,0.305,0.165,0.100,south-southwest,1.0,No
2018/03/16,04:50,0.320,0.204,0.332,0.318,0.303,0.165,0.099,south-southeast,0.7,No
2018/03/16,05:00,0.319,0.206,0.330,0.315,0.305,0.166,0.099,south-southwest,2.9,No
2018/03/16,05:10,0.321,0.206,0.333,0.316,0.303,0.165,0.100,south-southwest,4.0,No
2018/03/16,05:20,0.320,0.205,0.331,0.316,0.305,0.167,0.100,west-southwest,2.9,No
2018/03/16,05:30,0.320,0.205,0.331,0.316,0.302,0.167,0.100,west-southwest,1.4,No
2018/03/16,05:40,0.320,0.206,0.330,0.316,0.305,0.168,0.101,west-southwest,1.9,No
2018/03/16,05:50,0.320,0.205,0.331,0.314,0.304,0.166,0.100,west,1.5,No
2018/03/16,06:00,0.321,0.205,0.332,0.317,0.305,0.165,0.100,west-northwest,1.2,No
2018/03/16,06:10,0.319,0.205,0.329,0.316,0.304,0.166,0.100,west-southwest,1.1,No
2018/03/16,06:20,0.320,0.205,0.332,0.315,0.302,0.166,0.100,west-southwest,1.9,No
2018/03/16,06:30,0.319,0.205,0.332,0.316,0.305,0.166,0.101,west-southwest,2.3,No
2018/03/16,06:40,0.322,0.206,0.331,0.314,0.303,0.165,0.100,west,1.4,No
2018/03/16,06:50,0.321,0.207,0.331,0.317,0.304,0.166,0.099,northwest,0.8,No
2018/03/16,07:00,0.319,0.205,0.330,0.315,0.303,0.165,0.101,west-northwest,0.9,No
2018/03/16,07:10,0.319,0.205,0.331,0.316,0.304,0.166,0.100,north,0.6,No
2018/03/16,07:20,0.318,0.206,0.330,0.314,0.302,0.167,0.100,north,0.9,No
2018/03/16,07:30,0.320,0.206,0.331,0.315,0.305,0.167,0.099,north,1.0,No
2018/03/16,07:40,0.319,0.206,0.330,0.315,0.302,0.166,0.100,west-northwest,1.3,No
2018/03/16,07:50,0.319,0.206,0.330,0.314,0.304,0.166,0.099,west,0.8,No
2018/03/16,08:00,0.321,0.205,0.332,0.315,0.302,0.165,0.099,northwest,1.3,No
2018/03/16,08:10,0.320,0.206,0.330,0.315,0.305,0.166,0.100,northwest,2.8,No
2018/03/16,08:20,0.321,0.205,0.332,0.316,0.305,0.165,0.100,north-northwest,2.2,No
2018/03/16,08:30,0.318,0.205,0.329,0.314,0.304,0.166,0.100,north,2.7,No
2018/03/16,08:40,0.320,0.205,0.332,0.315,0.303,0.165,0.099,north-northwest,4.2,No
2018/03/16,08:50,0.319,0.205,0.328,0.315,0.303,0.165,0.100,north,4.7,Yes
2018/03/16,09:00,0.321,0.206,0.331,0.317,0.304,0.166,0.100,north-northeast,6.1,Yes
2018/03/16,09:10,0.318,0.206,0.331,0.317,0.303,0.168,0.101,northeast,10.0,Yes
2018/03/16,09:20,0.322,0.209,0.333,0.317,0.306,0.167,0.103,north-northeast,14.8,Yes
2018/03/16,09:30,0.324,0.210,0.335,0.320,0.306,0.171,0.106,north-northeast,12.0,Yes
2018/03/16,09:40,0.325,0.212,0.338,0.319,0.309,0.173,0.107,north,7.0,Yes
2018/03/16,09:50,0.327,0.216,0.338,0.320,0.312,0.176,0.108,north,6.6,Yes
2018/03/16,10:00,0.328,0.216,0.340,0.324,0.313,0.176,0.110,north-northeast,10.0,Yes
2018/03/16,10:10,0.328,0.215,0.339,0.323,0.311,0.177,0.110,north,10.6,Yes
2018/03/16,10:20,0.326,0.215,0.337,0.322,0.312,0.177,0.110,north,9.6,Yes
2018/03/16,10:30,0.327,0.216,0.335,0.321,0.311,0.177,0.110,north-northeast,10.7,Yes
2018/03/16,10:40,0.327,0.215,0.339,0.322,0.310,0.177,0.110,north,8.7,Yes
2018/03/16,10:50,0.326,0.214,0.336,0.321,0.310,0.176,0.110,north,8.1,Yes
2018/03/16,11:00,0.326,0.213,0.335,0.320,0.309,0.176,0.110,north,7.6,Yes
2018/03/16,11:10,0.325,0.214,0.335,0.320,0.308,0.174,0.109,north,8.3,Yes
2018/03/16,11:20,0.322,0.212,0.334,0.319,0.307,0.174,0.107,north,7.5,Yes
2018/03/16,11:30,0.322,0.211,0.333,0.318,0.307,0.172,0.107,north,7.1,Yes
2018/03/16,11:40,0.321,0.210,0.332,0.316,0.304,0.171,0.106,north,6.5,Yes
2018/03/16,11:50,0.320,0.209,0.331,0.315,0.303,0.170,0.104,north-northeast,6.3,Yes
2018/03/16,12:00,0.319,0.206,0.329,0.313,0.303,0.168,0.103,north,8.6,Yes
2018/03/16,12:10,0.319,0.206,0.330,0.313,0.302,0.168,0.102,north,7.7,No
2018/03/16,12:20,0.318,0.206,0.330,0.314,0.302,0.167,0.102,north-northeast,10.1,No
2018/03/16,12:30,0.317,0.205,0.327,0.312,0.302,0.166,0.101,north-northeast,11.2,No
2018/03/16,12:40,0.317,0.205,0.327,0.312,0.302,0.165,0.101,north-northeast,9.2,No
2018/03/16,12:50,0.317,0.205,0.328,0.312,0.300,0.165,0.101,north-northeast,9.8,No
2018/03/16,13:00,0.318,0.204,0.328,0.311,0.301,0.164,0.099,north-northeast,8.8,No
2018/03/16,13:10,0.317,0.204,0.327,0.310,0.301,0.164,0.100,north-northeast,9.3,No
2018/03/16,13:20,0.317,0.204,0.328,0.311,0.299,0.164,0.099,north,9.2,No
2018/03/16,13:30,0.318,0.203,0.327,0.311,0.300,0.164,0.099,north-northeast,9.0,No
2018/03/16,13:40,0.316,0.203,0.327,0.310,0.301,0.164,0.099,north-northeast,9.3,No
2018/03/16,13:50,0.314,0.203,0.327,0.311,0.299,0.165,0.099,north-northeast,9.2,No
2018/03/16,14:00,0.315,0.204,0.328,0.310,0.302,0.163,0.099,north,4.1,No
2018/03/16,14:10,0.317,0.205,0.327,0.310,0.301,0.164,0.098,north-northwest,4.3,No
2018/03/16,14:20,0.316,0.204,0.327,0.312,0.298,0.163,0.099,north-northwest,5.0,No
2018/03/16,14:30,0.317,0.205,0.328,0.310,0.301,0.164,0.099,north,5.5,No
2018/03/16,14:40,0.316,0.203,0.326,0.309,0.299,0.163,0.099,north,4.6,No
2018/03/16,14:50,0.316,0.203,0.326,0.311,0.301,0.164,0.099,north,7.1,No
2018/03/16,15:00,0.315,0.204,0.328,0.311,0.301,0.164,0.098,north,7.7,No
2018/03/16,15:10,0.318,0.203,0.328,0.310,0.299,0.164,0.098,north,10.1,No
2018/03/16,15:20,0.316,0.204,0.329,0.311,0.301,0.164,0.098,north,8.5,No
2018/03/16,15:30,0.317,0.203,0.330,0.311,0.301,0.164,0.098,north,8.3,No
2018/03/16,15:40,0.317,0.203,0.329,0.311,0.300,0.164,0.099,north,7.5,No
2018/03/16,15:50,0.317,0.203,0.328,0.311,0.300,0.164,0.099,north,6.8,No
2018/03/16,16:00,0.317,0.203,0.330,0.312,0.302,0.165,0.099,north,9.0,No
2018/03/16,16:10,0.317,0.204,0.329,0.310,0.302,0.164,0.099,north-northwest,9.2,No
2018/03/16,16:20,0.316,0.203,0.329,0.312,0.301,0.164,0.099,north-northwest,10.3,No
2018/03/16,16:30,0.316,0.203,0.329,0.313,0.300,0.164,0.098,north-northwest,10.6,No
2018/03/16,16:40,0.317,0.204,0.329,0.312,0.300,0.163,0.098,north-northwest,8.4,No
2018/03/16,16:50,0.316,0.204,0.329,0.311,0.300,0.164,0.100,north,6.9,No
2018/03/16,17:00,0.318,0.204,0.329,0.312,0.300,0.163,0.098,north,8.1,No
2018/03/16,17:10,0.317,0.204,0.331,0.312,0.300,0.164,0.097,north,6.4,No
2018/03/16,17:20,0.317,0.203,0.329,0.311,0.300,0.164,0.098,north,4.9,No
2018/03/16,17:30,0.316,0.203,0.327,0.311,0.301,0.165,0.098,north,7.4,No
2018/03/16,17:40,0.317,0.203,0.329,0.311,0.301,0.164,0.099,north,7.4,No
2018/03/16,17:50,0.317,0.203,0.329,0.311,0.299,0.164,0.098,north,7.4,No
2018/03/16,18:00,0.318,0.204,0.328,0.310,0.299,0.164,0.098,north,8.5,No
2018/03/16,18:10,0.317,0.203,0.329,0.311,0.300,0.163,0.098,north,7.0,No
2018/03/16,18:20,0.318,0.204,0.329,0.311,0.300,0.164,0.099,north,6.3,No
2018/03/16,18:30,0.317,0.203,0.328,0.311,0.300,0.164,0.099,north,6.8,No
2018/03/16,18:40,0.317,0.203,0.328,0.311,0.300,0.163,0.099,north,7.1,No
2018/03/16,18:50,0.317,0.203,0.327,0.312,0.301,0.163,0.098,north,9.2,No
2018/03/16,19:00,0.316,0.203,0.330,0.312,0.300,0.163,0.098,north,9.5,No
2018/03/16,19:10,0.316,0.203,0.329,0.310,0.301,0.164,0.099,north,10.1,No
2018/03/16,19:20,0.317,0.203,0.328,0.311,0.300,0.164,0.098,north,7.9,No
2018/03/16,19:30,0.317,0.203,0.327,0.312,0.300,0.164,0.098,north,9.0,No
2018/03/16,19:40,0.317,0.203,0.328,0.311,0.300,0.165,0.098,north,7.5,No
2018/03/16,19:50,0.318,0.203,0.328,0.310,0.300,0.164,0.098,north,6.9,No
2018/03/16,20:00,0.318,0.202,0.327,0.311,0.299,0.163,0.098,north,8.4,No
2018/03/16,20:10,0.317,0.204,0.328,0.312,0.300,0.164,0.099,north,9.3,No
2018/03/16,20:20,0.318,0.203,0.328,0.311,0.299,0.164,0.098,north,10.9,No
2018/03/16,20:30,0.318,0.204,0.328,0.310,0.300,0.164,0.098,north,10.6,No
2018/03/16,20:40,0.317,0.204,0.329,0.311,0.300,0.164,0.099,north,8.1,No
2018/03/16,20:50,0.318,0.203,0.329,0.312,0.301,0.163,0.099,north,8.2,No
2018/03/16,21:00,0.318,0.203,0.330,0.311,0.301,0.164,0.099,north,8.6,No
2018/03/16,21:10,0.319,0.204,0.329,0.310,0.301,0.164,0.098,north,7.5,No
2018/03/16,21:20,0.318,0.203,0.330,0.310,0.301,0.164,0.099,north,10.1,No
2018/03/16,21:30,0.317,0.204,0.328,0.311,0.302,0.164,0.099,north,8.9,No
2018/03/16,21:40,0.317,0.204,0.329,0.312,0.300,0.163,0.097,north,11.2,No
2018/03/16,21:50,0.317,0.204,0.328,0.311,0.301,0.164,0.098,north-northwest,11.8,No
2018/03/16,22:00,0.319,0.204,0.329,0.311,0.299,0.165,0.098,north,6.7,No
2018/03/16,22:10,0.319,0.204,0.331,0.311,0.300,0.164,0.099,north,9.0,No
2018/03/16,22:20,0.317,0.204,0.329,0.311,0.301,0.164,0.099,north,6.8,No
2018/03/16,22:30,0.319,0.203,0.328,0.311,0.301,0.164,0.099,north,6.5,No
2018/03/16,22:40,0.318,0.204,0.328,0.312,0.301,0.164,0.099,north,6.0,No
2018/03/16,22:50,0.319,0.203,0.329,0.310,0.300,0.164,0.098,north,5.9,No
2018/03/16,23:00,0.319,0.204,0.330,0.311,0.299,0.164,0.098,north,8.7,No
2018/03/16,23:10,0.318,0.203,0.329,0.311,0.299,0.164,0.099,north-northeast,8.5,No
2018/03/16,23:20,0.318,0.204,0.330,0.312,0.302,0.164,0.098,north,8.6,No
2018/03/16,23:30,0.317,0.204,0.328,0.311,0.300,0.164,0.099,north,10.1,No
2018/03/16,23:40,0.317,0.205,0.328,0.311,0.300,0.164,0.098,north,8.7,No
2018/03/16,23:50,0.320,0.204,0.329,0.313,0.298,0.164,0.099,north,8.6,No
